Temp
51 48 45 50 53 53 50 51 50 51 55 53 52 51 58 60 59 58 56 56 57 58 58 59 59 60 62 61 63 62 63 62 66 66 66 67 65 66 66 66 67 67 67 67
48 44 53 53 52 52 49 48 47 51 54 53 52 52 58 57 58 59 56 56 57 57 58 57 58 59 59 60 61 62 62 62 63 65 65 66 66 64 64 64 64 64 64 64
45 49 57 53 49 49 48 47 46 48 51 52 49 50 52 56 56 54 55 56 57 57 56 57 57 57 58 58 58 60 61 61 61 63 65 65 64 63 62 61 61 61 62 62
47 53 53 51 48 50 44 51 52 49 47 42 51 41 48 54 53 52 53 55 55 55 56 56 56 57 57 56 57 58 59 60 60 61 60 59 58 57 57 58 59 60 60 60
44 48 49 47 50 52 47 53 51 50 47 43 44 43 48 49 49 50 52 53 54 55 56 55 55 55 56 56 55 57 58 57 57 58 58 58 56 56 56 57 57 57 58 58
47 54 54 53 53 54 52 49 47 46 44 37 43 45 45 48 51 50 52 52 53 54 54 54 54 55 55 55 55 56 56 55 55 56 56 55 54 54 54 53 53 54 55 55
44 47 50 52 49 51 51 46 35 32 34 36 41 40 47 51 53 55 55 53 53 54 54 54 54 54 54 54 54 55 55 52 54 54 53 53 52 52 51 51 51 51 52 52
37 36 46 50 48 45 46 46 38 32 33 37 39 38 49 53 54 54 56 55 53 53 53 54 53 53 53 52 53 53 53 52 52 52 51 51 51 51 51 50 50 50 50 50
38 39 47 51 52 52 42 41 48 39 37 36 40 45 53 53 51 50 52 52 52 52 52 52 52 52 52 52 51 52 51 50 50 50 50 49 50 49 48 48 49 48 48 50
44 37 46 50 53 51 48 51 40 40 34 32 36 38 44 50 51 48 49 52 51 51 51 51 51 51 50 50 50 50 50 49 49 49 49 48 48 48 47 48 46 46 47 47
45 42 40 48 46 43 44 40 42 43 39 35 33 41 48 50 51 50 49 52 52 51 51 50 50 50 49 49 49 49 49 48 48 47 47 46 46 46 46 46 45 45 45 45
47 41 36 40 45 49 49 46 46 39 35 35 36 40 51 49 49 50 50 51 52 52 51 49 48 48 48 47 47 47 47 46 46 46 45 45 45 44 44 44 44 44 44 44
49 40 34 40 44 44 43 45 44 42 40 34 36 41 51 49 50 50 51 52 53 51 48 47 46 47 46 46 46 46 45 45 45 45 44 43 43 43 43 42 43 43 43 43
53 42 39 36 39 42 38 40 41 44 37 36 37 43 48 49 50 50 52 53 53 50 47 46 46 46 45 45 45 44 43 44 44 43 43 42 42 41 41 42 42 41 42 41
52 42 41 40 43 44 43 43 41 41 46 43 44 42 48 50 50 51 53 52 49 46 45 46 45 44 44 43 43 43 42 43 43 42 41 41 41 41 41 40 40 40 40 40
48 41 41 38 42 43 41 42 44 43 41 42 42 43 50 49 49 50 50 49 48 46 46 46 45 43 42 42 42 41 41 41 42 40 40 40 40 40 39 39 39 38 38 39
45 42 40 38 40 41 37 41 40 43 42 47 41 50 47 46 48 48 48 49 49 48 46 45 44 43 42 42 42 41 41 41 41 40 39 39 38 38 38 38 37 37 37 37
42 41 40 34 38 29 42 43 45 43 43 45 44 45 47 47 48 48 48 49 48 48 45 44 43 41 41 41 40 40 41 41 39 38 38 38 37 36 37 36 36 36 36 36
45 43 36 34 32 38 40 41 41 42 41 44 43 44 45 46 47 47 47 46 45 46 44 43 43 41 40 40 41 41 39 38 37 37 36 36 36 35 35 35 35 36 36 36
43 44 43 30 30 33 42 45 48 47 39 45 46 44 44 45 42 44 45 44 42 41 41 40 40 39 40 39 40 38 38 37 36 35 35 35 35 35 34 34 35 35 35 34
38 37 36 35 33 37 45 47 48 37 41 45 45 44 44 43 46 45 43 42 41 40 40 39 39 39 39 38 39 38 36 35 35 35 35 35 35 33 34 35 34 34 34 33
38 34 33 33 32 33 46 46 42 44 43 44 44 45 44 45 44 43 42 40 39 38 38 38 37 37 38 40 39 35 34 35 34 34 33 33 33 33 35 33 33 33 32 31
37 41 37 38 37 42 42 43 43 45 44 43 44 44 45 44 44 42 41 40 38 38 37 37 37 36 36 36 36 34 34 33 33 32 32 32 33 33 33 32 32 32 32 30
37 40 38 38 39 40 42 43 45 45 45 45 45 45 45 44 43 42 40 38 37 37 36 36 36 35 35 36 36 33 33 32 31 31 31 32 32 34 33 32 32 31 30 30
39 41 37 35 37 41 42 42 43 42 43 43 43 43 43 42 40 40 38 37 36 36 36 36 35 35 36 34 32 32 33 31 31 30 31 31 31 30 30 31 31 31 33 33
37 38 37 37 41 41 41 42 43 42 41 41 41 39 37 37 38 38 37 37 35 35 35 34 34 36 33 31 31 31 31 30 29 30 31 30 31 30 30 29 30 33 34 35
MSLP
1013.13 1012.18 1011.48 1011.90 1012.36 1012.54 1013.22 1013.37 1013.69 1013.59 1013.53 1013.54 1013.06 1012.58 1011.59 1011.08 1011.43 1012.00 1012.60 1013.25 1013.61 1013.93 1014.45 1014.17 1013.72 1013.44 1012.96 1012.52 1012.32 1012.11 1011.76 1012.09 1011.85 1011.82 1012.10 1012.53 1013.00 1013.39 1013.61 1013.82 1013.93 1013.91 1013.99 1013.98
1012.78 1011.11 1011.48 1012.07 1012.40 1012.54 1013.03 1013.37 1013.67 1013.69 1013.56 1013.67 1013.01 1012.10 1011.04 1011.08 1011.32 1011.72 1012.45 1013.34 1013.64 1014.01 1014.44 1014.52 1014.23 1013.89 1013.70 1013.57 1013.08 1012.56 1012.56 1012.79 1012.54 1012.41 1012.86 1013.22 1013.65 1014.25 1014.47 1014.66 1014.71 1014.71 1014.66 1014.68
1011.51 1010.93 1011.13 1011.60 1012.28 1012.56 1012.96 1013.19 1013.51 1013.72 1013.73 1013.57 1013.22 1012.01 1011.33 1011.20 1011.60 1012.09 1012.75 1013.11 1013.67 1013.90 1014.57 1014.79 1014.50 1014.51 1014.68 1014.30 1013.91 1013.71 1013.61 1013.45 1013.47 1013.44 1013.53 1013.82 1014.19 1014.66 1014.91 1015.24 1015.30 1015.44 1015.36 1015.27
1012.08 1010.51 1010.69 1011.35 1011.94 1012.29 1012.94 1013.13 1013.18 1013.76 1014.16 1014.21 1013.71 1013.06 1011.97 1011.37 1011.89 1012.51 1013.15 1013.31 1013.70 1014.19 1014.71 1014.77 1014.84 1015.10 1015.17 1015.20 1014.98 1014.55 1014.33 1014.17 1014.39 1014.45 1014.57 1014.84 1015.22 1015.58 1016.26 1016.22 1016.14 1015.90 1015.78 1015.67
1011.05 1010.58 1010.50 1010.99 1011.42 1012.16 1012.95 1013.04 1013.63 1014.08 1014.35 1014.55 1014.24 1014.01 1011.75 1011.67 1011.99 1012.49 1013.08 1013.73 1013.97 1014.24 1014.62 1015.08 1015.38 1015.68 1015.72 1015.63 1015.54 1015.45 1015.24 1015.27 1015.35 1015.41 1015.63 1015.74 1016.08 1016.47 1016.67 1016.56 1016.34 1016.23 1016.10 1016.00
1010.63 1010.38 1010.46 1010.79 1011.53 1012.04 1012.77 1013.37 1014.32 1014.61 1014.83 1014.73 1013.87 1013.69 1011.83 1011.45 1011.25 1012.00 1012.85 1013.67 1014.08 1014.33 1014.83 1015.46 1015.87 1016.05 1016.10 1016.15 1016.08 1016.04 1016.03 1016.43 1016.43 1016.20 1016.44 1016.45 1016.63 1016.88 1016.81 1016.79 1016.60 1016.52 1016.38 1016.24
1010.88 1010.42 1010.60 1010.80 1011.68 1012.29 1012.48 1013.52 1014.90 1015.70 1015.87 1014.47 1013.86 1013.81 1011.32 1010.74 1010.89 1011.06 1011.82 1013.02 1013.82 1014.13 1014.75 1015.55 1015.97 1016.28 1016.40 1016.54 1016.67 1016.64 1016.66 1016.92 1017.04 1017.02 1017.07 1017.27 1017.36 1017.37 1017.36 1017.33 1017.21 1016.92 1016.64 1016.45
1010.65 1010.78 1010.49 1010.85 1011.31 1011.68 1012.52 1012.94 1013.86 1014.24 1014.75 1014.34 1014.05 1012.85 1010.55 1010.12 1010.45 1010.80 1011.46 1012.54 1013.49 1014.10 1014.79 1015.44 1015.99 1016.41 1016.72 1016.98 1017.08 1017.11 1017.32 1017.42 1017.42 1017.45 1017.71 1017.92 1017.90 1017.88 1017.91 1017.92 1017.80 1017.62 1017.39 1017.11
1010.37 1010.57 1010.19 1010.28 1010.51 1011.00 1013.04 1012.93 1013.22 1013.97 1014.58 1014.40 1013.06 1011.71 1010.27 1010.26 1010.68 1011.03 1011.57 1012.55 1013.27 1013.98 1014.78 1015.47 1016.19 1016.61 1017.04 1017.40 1017.51 1017.63 1017.74 1017.77 1017.87 1017.99 1018.14 1018.29 1018.33 1018.25 1018.24 1018.16 1017.97 1017.84 1017.71 1017.40
1009.23 1010.27 1010.42 1010.52 1010.59 1011.38 1011.53 1012.21 1013.64 1013.84 1014.12 1014.07 1013.11 1012.15 1010.92 1010.48 1010.89 1011.42 1011.92 1012.36 1013.28 1014.11 1014.94 1015.64 1016.42 1017.03 1017.49 1017.79 1017.91 1018.09 1018.10 1018.01 1018.25 1018.44 1018.53 1018.67 1018.62 1018.55 1018.49 1018.37 1018.24 1018.08 1017.94 1017.77
1008.70 1009.23 1010.72 1010.45 1010.34 1010.83 1011.79 1012.59 1013.33 1013.56 1013.49 1013.49 1013.29 1011.77 1010.72 1010.69 1010.88 1011.21 1011.73 1012.31 1013.20 1013.98 1014.93 1015.78 1016.61 1017.33 1017.73 1017.91 1018.22 1018.39 1018.44 1018.51 1018.62 1018.83 1018.95 1018.98 1018.99 1018.90 1018.74 1018.60 1018.53 1018.40 1018.23 1018.04
1007.93 1008.82 1010.29 1010.45 1010.33 1010.25 1010.77 1011.67 1012.58 1012.74 1013.75 1013.81 1013.35 1011.52 1010.60 1010.66 1010.72 1010.84 1011.59 1012.40 1013.11 1014.02 1015.04 1015.80 1016.63 1017.38 1017.85 1018.18 1018.51 1018.59 1018.76 1018.97 1019.08 1019.22 1019.29 1019.27 1019.12 1018.90 1018.83 1018.89 1018.81 1018.60 1018.30 1017.98
1007.18 1008.32 1010.00 1010.73 1010.92 1010.97 1010.94 1011.45 1011.92 1012.20 1012.66 1013.19 1013.00 1011.43 1010.61 1010.65 1010.84 1011.13 1011.54 1012.37 1013.18 1014.17 1015.13 1015.98 1016.78 1017.42 1017.91 1018.30 1018.63 1018.83 1019.03 1019.25 1019.33 1019.41 1019.37 1019.26 1019.13 1019.04 1019.10 1019.09 1018.92 1018.56 1018.13 1017.70
1006.53 1007.58 1008.24 1008.65 1008.81 1009.71 1010.78 1011.04 1011.58 1011.66 1012.62 1012.65 1011.90 1011.21 1010.68 1010.84 1011.03 1011.46 1011.91 1012.37 1013.05 1013.89 1015.01 1015.95 1016.75 1017.38 1018.00 1018.41 1018.70 1019.00 1019.27 1019.37 1019.47 1019.37 1019.27 1019.22 1019.10 1019.26 1019.31 1019.07 1018.72 1018.41 1018.03 1017.61
1006.70 1007.52 1008.22 1008.58 1008.62 1008.93 1009.47 1010.13 1010.72 1011.06 1010.93 1011.27 1010.75 1010.92 1010.44 1010.61 1011.01 1011.43 1011.80 1012.36 1013.14 1014.03 1014.98 1015.81 1016.57 1017.34 1018.03 1018.51 1018.86 1019.18 1019.34 1019.49 1019.51 1019.32 1019.48 1019.53 1019.59 1019.52 1019.15 1018.85 1018.65 1018.30 1017.87 1017.52
1007.05 1007.91 1008.48 1009.12 1009.14 1009.17 1009.50 1009.69 1010.09 1010.42 1010.60 1010.57 1010.40 1010.31 1010.22 1010.65 1011.02 1011.64 1012.08 1012.59 1013.26 1013.99 1014.83 1015.69 1016.44 1017.16 1017.94 1018.46 1018.79 1019.08 1019.37 1019.43 1019.45 1019.61 1019.71 1019.82 1019.63 1019.39 1019.03 1018.73 1018.44 1018.03 1017.69 1017.25
1007.70 1008.04 1008.92 1009.49 1009.49 1009.44 1009.58 1008.92 1009.38 1009.73 1009.77 1009.63 1010.13 1009.25 1010.28 1010.98 1011.40 1011.84 1012.38 1012.79 1013.37 1013.97 1014.70 1015.45 1016.20 1017.16 1017.92 1018.32 1018.73 1019.08 1019.27 1019.35 1019.60 1019.76 1019.85 1019.67 1019.62 1019.24 1018.83 1018.54 1018.16 1017.80 1017.38 1016.93
1007.95 1008.82 1009.83 1009.93 1009.80 1009.47 1007.96 1007.94 1008.17 1008.77 1009.12 1009.46 1009.61 1009.72 1010.10 1010.75 1011.56 1012.03 1012.44 1012.87 1013.54 1014.02 1014.66 1015.45 1016.35 1017.32 1017.96 1018.51 1018.86 1019.06 1019.21 1019.45 1019.70 1019.78 1019.61 1019.69 1019.46 1019.00 1018.67 1018.32 1017.95 1017.49 1017.15 1016.70
1007.58 1008.94 1009.54 1009.80 1009.74 1008.83 1008.20 1008.22 1008.35 1008.39 1009.19 1009.36 1009.72 1010.29 1010.75 1011.31 1011.86 1012.65 1012.97 1013.48 1014.07 1014.37 1014.80 1015.64 1016.46 1017.34 1018.14 1018.50 1018.82 1019.08 1019.33 1019.65 1019.65 1019.60 1019.74 1019.53 1019.26 1018.97 1018.57 1018.11 1017.71 1017.30 1016.75 1016.10
1008.17 1008.02 1008.51 1010.07 1009.49 1008.53 1007.66 1007.47 1007.60 1008.06 1009.05 1009.25 1009.72 1010.51 1011.12 1011.62 1012.52 1013.10 1013.54 1013.98 1014.50 1014.98 1015.48 1016.24 1017.10 1017.77 1018.14 1018.65 1018.90 1019.14 1019.40 1019.56 1019.64 1019.75 1019.67 1019.44 1019.23 1018.93 1018.50 1018.04 1017.53 1016.99 1016.48 1015.97
1008.67 1008.89 1009.60 1009.92 1009.20 1008.34 1007.38 1007.64 1007.92 1008.96 1009.48 1009.38 1010.11 1010.83 1011.48 1012.13 1012.76 1013.37 1013.86 1014.43 1015.12 1015.72 1016.34 1016.94 1017.43 1017.86 1018.32 1018.67 1018.93 1019.13 1019.50 1019.57 1019.70 1019.70 1019.53 1019.35 1019.12 1018.74 1018.21 1017.67 1017.06 1016.57 1016.15 1015.72
1008.19 1009.07 1009.60 1009.83 1009.54 1008.64 1007.58 1008.28 1008.49 1009.03 1009.65 1010.10 1010.79 1011.29 1011.91 1012.41 1013.01 1013.57 1014.25 1015.04 1015.79 1016.41 1016.87 1017.32 1017.81 1018.20 1018.53 1018.69 1018.94 1019.34 1019.50 1019.61 1019.56 1019.57 1019.54 1019.20 1018.74 1018.39 1017.78 1017.23 1016.69 1016.38 1015.97 1015.39
1008.26 1007.90 1008.15 1008.60 1008.52 1008.24 1008.26 1008.43 1008.63 1009.01 1009.70 1010.69 1011.09 1011.69 1012.08 1012.72 1013.43 1014.08 1014.70 1015.35 1016.03 1016.63 1017.15 1017.61 1017.90 1018.27 1018.63 1018.85 1019.09 1019.33 1019.41 1019.49 1019.62 1019.53 1019.13 1018.79 1018.48 1017.99 1017.40 1016.97 1016.55 1016.12 1015.67 1015.15
1008.17 1008.00 1008.41 1008.99 1009.01 1008.86 1008.90 1009.18 1009.35 1009.80 1010.33 1011.05 1011.43 1011.92 1012.36 1012.94 1013.50 1014.17 1014.90 1015.64 1016.29 1016.79 1017.21 1017.56 1017.92 1018.24 1018.55 1018.83 1019.09 1019.17 1019.46 1019.56 1019.39 1019.12 1018.93 1018.53 1017.97 1017.33 1017.08 1016.98 1016.57 1016.03 1015.50 1014.75
1008.22 1008.35 1008.74 1009.48 1009.64 1009.67 1009.75 1009.86 1010.17 1010.80 1011.19 1011.73 1012.16 1012.54 1013.00 1013.46 1014.01 1014.50 1015.05 1015.54 1016.03 1016.55 1017.07 1017.40 1017.72 1018.10 1018.48 1018.81 1019.08 1019.32 1019.29 1019.21 1019.11 1018.89 1018.48 1017.95 1017.54 1017.26 1016.96 1016.71 1016.39 1015.78 1015.16 1014.56
1007.97 1007.99 1008.51 1008.56 1008.62 1009.08 1009.86 1010.42 1010.80 1011.42 1012.10 1012.53 1012.90 1013.47 1013.82 1014.01 1014.32 1014.64 1015.10 1015.50 1015.96 1016.44 1016.85 1017.35 1017.79 1018.11 1018.62 1018.98 1019.09 1019.12 1019.08 1019.06 1018.86 1018.44 1017.90 1017.61 1017.33 1017.07 1016.74 1016.30 1015.62 1015.42 1014.73 1014.02
Wind_Speed
15 11 15 16 12 5 7 7 10 2 2 1 5 6 14 5 4 4 5 6 6 6 4 6 8 9 10 13 13 13 14 11 6 5 5 8 9 9 10 10 14 14 13 13
11 14 12 9 8 7 6 5 5 3 1 3 5 13 13 3 4 4 11 8 7 6 6 7 9 11 12 10 12 15 15 12 10 6 4 5 7 9 8 8 12 12 13 13
17 7 15 12 7 9 4 6 4 4 3 1 5 7 5 2 2 4 6 7 6 9 8 6 10 10 9 12 12 13 13 14 13 10 7 7 6 6 7 8 8 11 12 12
11 6 16 14 12 9 9 4 2 2 4 3 4 7 6 4 1 4 6 8 9 9 6 6 8 9 9 9 8 12 13 14 13 12 12 15 10 8 5 6 7 8 11 11
6 14 18 16 15 9 4 6 3 0 3 1 2 2 7 2 3 6 8 6 7 8 8 7 7 6 7 7 8 10 13 14 13 13 11 9 10 6 5 5 8 9 8 10
3 3 10 8 8 9 9 7 6 3 4 3 5 6 6 4 5 5 4 7 9 9 8 6 5 6 8 7 9 10 13 12 11 12 12 12 11 8 7 8 7 6 6 6
3 3 4 6 10 3 5 7 3 1 4 5 2 2 9 3 5 9 15 13 11 11 10 9 8 7 7 8 8 9 11 11 10 12 12 11 10 10 10 8 7 9 7 7
5 6 8 6 7 7 6 6 5 5 4 3 3 6 6 3 3 3 7 11 11 11 9 9 8 7 8 7 8 9 9 10 10 11 11 10 10 7 7 8 6 6 7 7
13 3 2 8 4 10 4 5 4 4 2 1 3 6 7 1 3 2 10 13 13 11 10 10 8 8 7 7 7 8 9 10 9 10 9 9 8 8 7 7 6 6 6 7
5 6 4 4 6 4 7 6 3 2 4 4 3 5 5 5 4 3 8 14 9 8 10 9 8 8 6 7 7 7 8 10 9 9 7 7 7 8 7 7 8 9 8 9
6 5 1 6 5 10 5 3 1 3 2 4 1 4 5 5 3 7 9 9 11 10 11 10 9 8 7 7 6 6 7 8 8 8 7 7 7 7 7 7 8 7 7 8
7 7 5 3 1 3 5 8 11 4 3 2 2 6 1 5 5 6 9 8 7 7 9 10 11 9 8 7 6 6 7 7 7 6 6 6 6 7 7 7 7 7 8 7
7 2 7 5 2 4 5 4 4 4 3 6 6 5 1 3 4 3 9 6 6 7 10 10 10 9 8 7 6 6 6 6 5 5 4 5 6 7 7 7 7 7 8 9
4 3 6 8 5 7 5 4 4 6 4 5 7 5 3 1 5 6 5 6 7 7 10 10 9 8 7 6 6 6 5 4 4 4 4 4 5 5 5 6 8 8 8 9
2 3 3 1 2 6 8 10 12 10 11 11 7 10 7 4 7 6 4 4 6 7 10 11 10 9 8 7 6 5 4 4 3 4 4 5 5 5 6 7 7 8 8 9
3 3 3 2 2 4 5 6 11 9 3 8 5 8 5 3 5 5 4 5 5 6 9 10 10 10 9 7 6 5 4 3 3 3 4 4 5 6 6 7 8 8 9 10
4 6 3 2 2 4 3 10 10 7 6 10 12 9 7 4 7 6 5 5 5 5 8 11 11 9 8 7 6 5 4 3 3 2 2 4 5 6 7 8 9 9 10 10
6 6 2 4 2 1 5 1 5 6 3 5 3 6 7 7 5 5 3 3 3 2 6 8 8 8 7 5 5 5 3 3 1 1 4 4 6 7 8 9 9 10 9 10
5 7 2 5 4 4 1 4 7 8 6 6 9 7 7 5 4 3 3 3 2 1 3 6 8 7 6 6 5 4 3 1 1 4 4 5 6 8 9 10 10 10 10 11
4 4 4 1 5 7 1 2 4 4 5 8 7 7 7 5 3 3 2 2 5 5 5 8 8 7 7 5 4 4 2 1 3 4 5 6 6 8 9 10 10 9 10 12
3 4 6 4 2 6 4 3 4 5 4 5 6 6 6 4 2 3 3 4 4 4 7 7 7 7 6 5 4 3 1 2 3 4 5 6 7 8 8 9 9 9 12 12
7 7 5 3 2 7 5 4 7 4 4 6 5 4 5 5 5 4 3 4 5 7 6 6 6 6 5 4 3 2 1 2 3 4 6 7 8 7 8 10 10 11 11 12
3 5 6 7 5 1 2 1 3 4 7 5 6 5 6 6 5 6 4 5 6 7 5 5 6 6 4 4 3 1 1 3 4 5 7 8 9 8 8 9 12 10 10 10
2 2 4 4 1 2 4 4 4 4 5 6 5 5 5 4 5 5 5 6 7 7 6 5 6 6 5 4 2 1 2 3 4 6 7 7 8 11 9 7 8 9 9 9
3 5 6 3 2 5 3 3 6 6 7 8 5 4 4 4 3 3 4 5 6 6 6 6 5 4 4 3 1 2 3 3 5 6 7 7 7 8 9 8 8 9 9 11
5 7 5 6 8 5 6 7 6 8 6 5 5 4 3 2 3 3 4 4 5 6 5 5 4 4 3 3 3 2 2 3 4 6 6 7 8 7 8 8 9 12 16 20
Wind_Direction
201 196 199 188 180 166 156 168 214 236 252 230 248 265 287 282 233 239 160 146 119 86 355 28 48 44 53 45 48 44 52 44 63 66 75 64 73 69 64 61 56 52 49 46
192 204 183 161 161 132 141 151 206 274 209 202 298 289 271 287 251 184 168 162 144 121 70 41 51 51 49 56 56 56 55 50 49 59 73 85 84 73 71 59 52 46 45 39
201 186 167 166 167 169 168 160 163 209 313 213 296 290 326 330 104 94 148 144 140 128 119 86 63 54 51 52 50 60 60 58 55 59 76 79 75 64 51 39 44 38 40 37
236 224 164 166 180 169 206 189 102 93 36 267 13 290 293 305 151 134 170 164 143 134 125 95 86 73 69 56 59 65 62 61 55 58 70 71 71 71 44 42 39 38 34 32
215 181 175 175 182 162 189 161 161 209 200 32 323 259 275 342 218 187 191 194 156 143 130 114 105 103 85 72 67 69 71 66 65 66 69 77 77 75 61 45 38 33 29 29
236 177 154 181 156 156 152 79 54 38 47 275 212 195 273 219 206 156 166 196 168 153 137 129 117 118 98 78 78 79 81 72 69 75 74 75 74 63 50 34 29 20 16 18
193 146 96 111 129 59 129 117 49 55 211 227 125 162 252 250 216 183 182 184 178 165 149 149 146 137 113 98 94 89 86 82 77 73 68 66 66 59 51 35 24 16 11 10
199 162 152 152 188 150 160 145 166 189 190 236 138 229 251 185 266 232 165 168 168 165 155 159 155 143 126 115 103 98 97 93 81 77 69 62 59 58 51 40 30 22 11 2
184 185 148 168 146 141 201 167 135 111 55 80 250 283 295 189 19 122 161 164 177 167 159 159 156 146 134 119 104 109 107 96 86 82 77 67 62 60 52 41 33 21 11 358
171 104 174 120 105 40 153 145 146 300 185 222 287 282 250 331 14 127 172 175 169 148 157 154 153 145 127 113 106 98 93 93 90 81 74 69 58 49 41 34 24 15 4 356
154 107 100 121 203 165 144 126 173 168 133 162 232 263 214 259 280 194 188 176 167 167 165 158 150 141 128 116 107 101 90 89 83 76 67 57 47 41 36 28 14 3 351 341
212 127 128 173 41 173 148 158 198 145 201 93 124 271 257 276 276 170 164 168 173 161 158 156 152 146 134 120 111 101 90 87 84 77 69 57 46 35 31 14 1 350 342 338
187 129 113 110 38 11 186 149 181 119 82 178 152 251 11 48 79 141 156 165 170 159 156 156 151 152 143 133 124 105 95 97 92 87 72 50 37 28 13 355 347 346 342 341
124 127 152 183 165 136 173 157 175 157 168 171 215 234 248 146 139 145 148 177 182 173 160 160 159 155 149 146 132 120 112 115 119 95 67 49 33 10 345 342 345 340 341 339
140 138 121 1 175 146 168 177 182 194 200 203 207 211 228 182 178 169 151 143 144 161 166 170 165 162 160 150 138 135 125 130 118 69 37 22 0 340 347 343 334 335 340 334
358 185 133 99 150 158 183 198 194 211 176 250 165 238 181 124 114 135 151 150 157 171 175 173 167 165 164 161 159 145 143 110 78 56 25 346 341 341 339 333 334 337 332 332
148 121 135 194 174 134 288 206 187 202 197 203 211 220 166 146 146 143 126 119 130 169 178 178 170 163 164 169 156 150 137 102 82 34 340 347 336 330 334 333 335 333 330 329
131 88 321 145 153 195 241 41 189 156 189 182 110 152 162 148 133 119 78 84 61 144 172 164 150 154 157 149 143 140 126 90 64 308 358 336 326 331 331 331 327 325 324 323
88 170 145 147 191 284 271 199 157 171 228 188 151 139 128 123 99 73 64 62 36 352 158 150 147 138 142 148 148 138 103 88 354 5 329 327 335 326 328 327 323 318 320 327
86 77 112 59 158 202 239 184 174 139 275 178 146 139 136 132 129 228 41 71 64 76 108 127 127 131 133 139 134 130 126 33 351 331 316 322 323 321 317 312 312 315 321 316
94 30 144 194 210 287 231 162 156 115 251 114 125 131 132 124 165 135 115 73 84 91 117 122 131 141 148 150 155 130 143 335 317 312 319 318 314 313 299 309 320 321 316 310
156 151 176 105 118 263 152 118 166 163 51 114 112 125 129 120 114 96 99 125 133 139 139 140 137 147 158 149 128 140 305 320 331 323 303 305 313 314 320 324 321 316 310 310
196 179 178 170 210 236 23 16 88 116 121 137 128 144 136 134 148 160 187 177 175 172 161 158 155 151 148 133 127 148 337 338 305 297 313 317 311 318 323 321 320 317 316 309
258 179 107 126 323 58 95 80 85 104 108 118 104 127 132 143 156 164 162 176 179 176 172 161 158 165 164 148 134 61 293 282 303 317 309 307 322 328 328 313 310 310 304 305
196 141 138 84 36 66 356 104 123 96 95 97 75 92 134 153 195 193 190 187 179 168 168 164 162 164 151 136 225 256 279 320 315 300 308 319 322 314 312 307 303 302 302 302
189 168 159 210 183 144 171 155 134 119 117 121 129 124 94 133 195 183 194 182 166 164 146 141 153 153 167 193 244 282 293 284 296 313 324 323 317 309 308 303 304 305 306 310